Date String (YYYY-MM-DD hh:mm:ss) UTC,Instrument flags,Ambient pressure (hPa),Sample flow (lpm),Bypass flow (lpm),Sample temperature (°C),Ambient temperature (°C),ASC tube jacket temperature (°C),LED temperature (°C),Box temperature (°C),Sample RH (%),Span deviation,Mass concentration (μg/m³),Mass concentration (μg/m³),Mass concentration (μg/m³)
DateTimeUTC,F1_M11,P_M11,Q1_M11,Q2_M11,T1_M11,T2_M11,T3_M11,T4_M11,T5_M11,U1_M11,ZSPAN_M11,X0_M11,X2_M11,X1_M11
2022-07-06 08:00:00,,0827.6,5.01,0.00,29.8,28.6,00.0,38.5,31.7,28.8,0000.0,0005.34,0002.12,0001.48
2022-07-06 08:01:00,,0827.6,5.00,0.00,29.8,28.7,00.0,38.6,31.8,28.9,0000.0,0005.30,0002.13,0001.50
2022-07-06 08:02:00,,0827.7,5.01,0.00,29.8,28.7,00.0,38.6,31.8,28.8,0000.0,0005.34,0002.16,0001.53
2022-07-06 08:03:00,,0827.7,4.99,0.00,29.8,28.8,00.0,38.6,31.8,28.9,0000.0,0005.50,0002.22,0001.56
2022-07-06 08:04:00,,0827.7,5.00,0.00,29.9,28.8,00.0,38.6,31.9,29.0,0000.0,0005.36,0002.22,0001.60
2022-07-06 08:05:00,,0827.7,5.01,0.00,29.9,28.9,00.0,38.6,31.9,29.1,0000.0,0005.34,0002.24,0001.64
2022-07-06 08:06:00,,0827.7,5.00,0.00,29.9,28.9,00.0,38.6,31.9,29.0,0000.0,0005.31,0002.24,0001.66
2022-07-06 08:07:00,,0827.7,5.01,0.00,29.9,28.9,00.0,38.7,31.9,28.9,0000.0,0005.15,0002.23,0001.67
2022-07-06 08:08:00,,0827.6,5.00,0.00,30.0,29.0,00.0,38.7,32.0,28.7,0000.0,0005.20,0002.26,0001.68
2022-07-06 08:09:00,,0827.6,5.01,0.00,30.0,28.8,00.0,38.7,32.0,28.7,0000.0,0004.08,0002.28,0001.67
2022-07-06 08:10:00,,0827.5,5.01,0.00,30.0,28.0,00.0,38.6,31.9,28.6,0000.0,0003.61,0002.25,0001.67
2022-07-06 08:11:00,,0827.5,5.00,0.00,29.9,27.6,00.0,38.6,31.7,28.6,0000.0,0003.63,0002.27,0001.66
2022-07-06 08:12:00,,0827.5,4.99,0.00,29.9,27.6,00.0,38.6,31.6,28.8,0000.0,0003.70,0002.29,0001.64
2022-07-06 08:13:00,,0827.6,5.00,0.00,29.8,27.6,00.0,38.6,31.5,28.9,0000.0,0005.03,0002.32,0001.64
2022-07-06 08:14:00,,0827.6,5.01,0.00,29.8,27.7,00.0,38.6,31.5,28.9,0000.0,0005.06,0002.29,0001.62
2022-07-06 08:15:00,,0827.6,5.00,0.00,29.8,27.9,00.0,38.6,31.6,28.9,0000.0,0005.11,0002.27,0001.58
2022-07-06 08:16:00,,0827.5,5.00,0.00,29.8,28.0,00.0,38.6,31.6,29.0,0000.0,0005.84,0002.22,0001.56
2022-07-06 08:17:00,,0827.5,5.01,0.00,29.8,28.2,00.0,38.6,31.6,29.2,0000.0,0006.60,0002.27,0001.54
2022-07-06 08:18:00,,0827.5,4.99,0.00,29.8,28.3,00.0,38.6,31.7,29.4,0000.0,0007.60,0002.28,0001.53
2022-07-06 08:19:00,,0827.5,4.99,0.00,29.8,28.4,00.0,38.6,31.7,29.5,0000.0,0008.17,0002.33,0001.53
2022-07-06 08:20:00,,0827.5,4.99,0.00,29.8,28.5,00.0,38.6,31.7,29.6,0000.0,0008.35,0002.37,0001.54
2022-07-06 08:21:00,,0827.5,5.00,0.00,29.8,28.6,00.0,38.6,31.8,29.9,0000.0,0008.35,0002.40,0001.55
2022-07-06 08:22:00,,0827.5,5.01,0.00,29.8,28.6,00.0,38.6,31.8,30.0,0000.0,0008.32,0002.37,0001.57
2022-07-06 08:23:00,,0827.6,5.01,0.00,29.9,28.7,00.0,38.6,31.8,30.0,0000.0,0008.38,0002.37,0001.60
2022-07-06 08:24:00,,0827.6,5.00,0.00,29.9,28.7,00.0,38.6,31.8,30.3,0000.0,0007.99,0002.41,0001.63
2022-07-06 08:25:00,,0827.6,5.00,0.00,29.9,28.8,00.0,38.6,31.9,30.9,0000.0,0008.06,0002.50,0001.70
2022-07-06 08:26:00,,0827.7,5.00,0.00,29.9,28.9,00.0,38.7,31.9,31.6,0000.0,0008.15,0002.63,0001.79
2022-07-06 08:27:00,,0827.7,5.00,0.00,30.0,28.9,00.0,38.7,31.9,32.0,0000.0,0007.94,0002.81,0001.90
2022-07-06 08:28:00,,0827.7,5.00,0.00,30.0,28.9,00.0,38.7,32.0,31.9,0000.0,0008.16,0003.01,0002.01
2022-07-06 08:29:00,,0827.7,5.00,0.00,30.0,28.5,00.0,38.7,31.9,32.4,0000.0,0007.84,0003.17,0002.13
2022-07-06 08:30:00,,0827.6,5.00,0.00,30.0,27.8,00.0,38.6,31.8,33.0,0000.0,0008.14,0003.27,0002.25
2022-07-06 08:31:00,,0827.7,5.00,0.00,29.9,27.6,00.0,38.6,31.7,32.8,0000.0,0008.10,0003.36,0002.38
2022-07-06 08:32:00,,0827.7,5.01,0.00,29.8,27.6,00.0,38.6,31.6,33.0,0000.0,0008.30,0003.47,0002.49
2022-07-06 08:33:00,,0827.7,5.00,0.00,29.8,27.6,00.0,38.6,31.5,33.2,0000.0,0008.72,0003.60,0002.61
2022-07-06 08:34:00,,0827.7,5.00,0.00,29.8,27.7,00.0,38.6,31.5,33.0,0000.0,0008.90,0003.70,0002.71
2022-07-06 08:35:00,,0827.7,5.00,0.00,29.7,27.9,00.0,38.6,31.5,33.2,0000.0,0009.02,0003.77,0002.79
2022-07-06 08:36:00,,0827.7,5.00,0.00,29.7,28.0,00.0,38.6,31.6,33.6,0000.0,0009.53,0003.84,0002.87
2022-07-06 08:37:00,,0827.7,4.99,0.00,29.7,28.1,00.0,38.6,31.6,33.7,0000.0,0009.59,0003.88,0002.94
2022-07-06 08:38:00,,0827.7,5.00,0.00,29.8,28.3,00.0,38.6,31.6,33.9,0000.0,0010.33,0003.93,0003.01
2022-07-06 08:39:00,,0827.7,5.01,0.00,29.8,28.4,00.0,38.6,31.7,33.9,0000.0,0010.25,0003.98,0003.05
2022-07-06 08:40:00,,0827.7,5.00,0.00,29.8,28.5,00.0,38.6,31.7,33.9,0000.0,0010.14,0004.01,0003.08
2022-07-06 08:41:00,,0827.8,4.99,0.00,29.8,28.5,00.0,38.6,31.7,34.0,0000.0,0009.72,0004.05,0003.11
2022-07-06 08:42:00,,0827.7,5.00,0.00,29.8,28.6,00.0,38.6,31.8,34.1,0000.0,0009.74,0004.07,0003.13
2022-07-06 08:43:00,,0827.7,5.00,0.00,29.8,28.7,00.0,38.6,31.8,34.1,0000.0,0010.03,0004.09,0003.16
2022-07-06 08:44:00,,0827.7,4.99,0.00,29.9,28.8,00.0,38.6,31.9,34.1,0000.0,0010.05,0004.13,0003.18
2022-07-06 08:45:00,,0827.8,5.00,0.00,29.9,28.8,00.0,38.6,31.9,34.2,0000.0,0009.95,0004.09,0003.19
2022-07-06 08:46:00,,0827.8,5.01,0.00,29.9,28.9,00.0,38.7,31.9,34.2,0000.0,0010.28,0004.13,0003.23
2022-07-06 08:47:00,,0827.9,5.01,0.00,29.9,28.9,00.0,38.7,31.9,34.2,0000.0,0010.22,0004.17,0003.25
2022-07-06 08:48:00,,0827.9,4.99,0.00,30.0,29.0,00.0,38.7,32.0,34.2,0000.0,0010.50,0004.20,0003.27
2022-07-06 08:49:00,,0827.9,5.00,0.00,30.0,29.0,00.0,38.7,32.0,34.2,0000.0,0010.47,0004.23,0003.28
2022-07-06 08:50:00,,0827.9,5.00,0.00,30.0,29.0,00.0,38.7,32.0,34.4,0000.0,0010.81,0004.25,0003.32
2022-07-06 08:51:00,,0827.9,5.00,0.00,30.0,28.5,00.0,38.7,32.0,34.9,0000.0,0011.75,0004.30,0003.36
2022-07-06 08:52:00,,0827.9,5.01,0.00,30.1,27.8,00.0,38.7,31.9,35.2,0000.0,0011.83,0004.32,0003.40
2022-07-06 08:53:00,,0827.8,4.99,0.00,30.2,27.6,00.0,38.7,31.9,35.3,0000.0,0012.61,0004.40,0003.46
2022-07-06 08:54:00,,0827.8,5.01,0.00,30.4,27.6,00.0,38.7,32.0,34.9,0000.0,0013.87,0004.49,0003.51
2022-07-06 08:55:00,,0827.8,5.00,0.00,30.7,27.7,00.0,38.7,32.0,35.0,0000.0,0015.08,0004.55,0003.57
2022-07-06 08:56:00,,0827.8,5.00,0.00,30.9,27.8,00.0,38.7,32.0,35.5,0000.0,0015.58,0004.74,0003.67
2022-07-06 08:57:00,,0827.9,5.00,0.00,31.2,28.0,00.0,38.8,32.1,34.7,0000.0,0016.30,0004.87,0003.73
2022-07-06 08:58:00,,0827.9,5.01,0.00,31.4,28.1,00.0,38.8,32.1,34.2,0000.0,0016.96,0004.96,0003.80
2022-07-06 08:59:00,,0827.9,5.00,0.00,31.5,28.2,00.0,38.9,32.1,34.0,0000.0,0017.42,0005.05,0003.86
